Regional Weather Roundup
Issued by NWS

Home | Current Version | Previous Version | Text Only | Print | Product List | Glossary Off
Versions: 1 2 3 4 5 6 7 8 9 10 11 12 13 14 15 16 17 18 19 20 21 22 23 24 25 26 27 28 29 30 31 32 33 34 35 36 37 38 39 40 41 42 43 44 45 46 47 48 49 50

000
ASUS45 KCYS 271810
RWRWY

WYOMING REGIONAL WEATHER ROUNDUP
NATIONAL WEATHER SERVICE CHEYENNE WY
1200 PM MDT SUN JUL 27 2014

NOTE:  "FAIR" INDICATES FEW OR NO CLOUDS BELOW 12,000 FEET
WITH NO SIGNIFICANT WEATHER AND/OR OBSTRUCTIONS TO VISIBILITY.

WYZ001-271900-
YELLOWSTONE NATIONAL PARK

CITY           SKY/WX    TMP DP  RH WIND       PRES   REMARKS
LK YELLOWSTONE   N/A     67  34  29 VRB3      30.53F
6HR MIN TEMP:  33; 6HR MAX TEMP:  67;

W YELLOWSTONE  NOT AVBL

$$
WYZ002>013-054>058-071-098>099-271900-
NORTHERN WYOMING

CITY           SKY/WX    TMP DP  RH WIND       PRES   REMARKS
JACKSON        SUNNY     72  36  26 CALM      30.43F
CODY           NOT AVBL
GREYBULL       SUNNY     79  35  20 SE7       30.30F
6HR MIN TEMP:  53; 6HR MAX TEMP:  79;

WORLAND        SUNNY     77  37  23 CALM      30.31F
6HR MIN TEMP:  52; 6HR MAX TEMP:  77;

SHERIDAN       SUNNY     78  41  26 E8        30.34F
6HR MIN TEMP:  45; 6HR MAX TEMP:  79;

BUFFALO        SUNNY     76  37  24 SE9       30.39F
6HR MIN TEMP:  53; 6HR MAX TEMP:  76;

GILLETTE       SUNNY     76  40  27 CALM      30.36F
6HR MIN TEMP:  45; 6HR MAX TEMP:  76;

HULETT         FAIR      72  45  37 MISG      30.37
NEWCASTLE      FAIR      77  34  20 NW12      30.35

$$
WYZ014>020-022>026-101>103-271900-
CENTRAL WYOMING

CITY           SKY/WX    TMP DP  RH WIND       PRES   REMARKS
BIG PINEY      SUNNY     74  30  19 VRB6      30.48S
6HR MIN TEMP:  35; 6HR MAX TEMP:  75;

PINEDALE       CLEAR     73  32  21 CALM      30.48F
DUBOIS         FAIR      72  30  21 S5        30.48F
LANDER         SUNNY     76  34  21 VRB3      30.38F
6HR MIN TEMP:  57; 6HR MAX TEMP:  77;

RIVERTON       SUNNY     76  33  21 VRB3      30.39F
6HR MIN TEMP:  58; 6HR MAX TEMP:  76;

CASPER         SUNNY     77  44  30 E9        30.38F
6HR MIN TEMP:  47; 6HR MAX TEMP:  77;

DOUGLAS        SUNNY     77  47  34 SE13      30.39F
6HR MIN TEMP:  49; 6HR MAX TEMP:  78;


$$
WYZ021-027>030-104>119-271900-
SOUTHERN WYOMING

CITY           SKY/WX    TMP DP  RH WIND       PRES   REMARKS
EVANSTON       MOSUNNY   80  26  13 E12       30.44S
6HR MIN TEMP:  56; 6HR MAX TEMP:  81;

KEMMERER       CLEAR     79  25  13 E6        30.47F
FORT BRIDGER   FAIR      78  27  15 NE7       30.48S
ROCK SPRINGS   SUNNY     79  35  20 NE7       30.43F
6HR MIN TEMP:  55; 6HR MAX TEMP:  79;

DIXON          FAIR      79  43  28 W3        30.43F
RAWLINS        SUNNY     76  44  32 MISG      30.44F
6HR MIN TEMP:  55; 6HR MAX TEMP:  77;

SARATOGA       FAIR      77  43  29 NW5       30.45S
LARAMIE        SUNNY     74  53  48 SE17      30.46F
6HR MIN TEMP:  47; 6HR MAX TEMP:  74;

CHEYENNE       CLOUDY    71  56  58 S13       30.44F
6HR MIN TEMP:  61; 6HR MAX TEMP:  71;

TORRINGTON     MOSUNNY   79  48  33 SE10      30.34F
6HR MIN TEMP:  60; 6HR MAX TEMP:  79;

PINE BLUFFS    MOCLDY    75  52  43 SE6       30.39F

$$


USA.gov is the U.S. government's official web portal to all federal, state and local government web resources and services.